Simultaneous Nadir Overpasses (SNOs) Predictions

Prediction of SNOs between AQUA and METOP-A Satellite Orbit:

Table of predicted SNOs for the next 14.0 days since TLE Epoch: 7/19/2014
Index Date (AQUA) Time (AQUA) Lat,Lon (AQUA) SZA (AQUA ) Date (METOP-A) Time (METOP-A) Lat,Lon (METOP-A) SZA (METOP-A ) Distance(km) Time Diff (sec)
1 07/20/2014 12:13:20 73.79, -8.96 53.24 07/20/2014 12:12:23 73.81, -8.92 53.27 2.53 57
2 07/20/2014 13:02:47 -73.87, 158.51 126.67 07/20/2014 13:03:04 -73.87, 158.54 126.68 0.99 17
3 07/20/2014 13:52:25 74.41, -35.10 53.93 07/20/2014 13:53:32 74.44, -32.70 53.84 71.66 67
4 07/23/2014 07:47:33 73.83, 57.42 53.83 07/23/2014 07:46:48 73.81, 57.47 53.81 2.73 45
5 07/23/2014 08:36:59 -73.85,-134.99 126.14 07/23/2014 08:37:29 -73.87,-135.07 126.13 2.82 30
6 07/26/2014 03:21:44 73.82, 123.88 54.42 07/26/2014 03:21:12 73.80, 123.85 54.40 2.74 32
7 07/26/2014 04:11:11 -73.89, -68.63 125.50 07/26/2014 04:11:52 -73.91, -68.55 125.49 3.23 41
8 07/28/2014 22:06:17 -73.21, 23.97 125.61 07/28/2014 22:05:10 -73.17, 21.49 125.52 79.94 67
9 07/28/2014 22:55:56 73.82,-169.68 55.06 07/28/2014 22:55:36 73.84,-169.66 55.08 1.40 20
10 07/28/2014 23:45:23 -73.89, -2.19 124.86 07/28/2014 23:46:17 -73.90, -2.17 124.86 1.32 54
11 07/31/2014 17:40:38 -73.70, 89.41 124.41 07/31/2014 17:39:25 -73.66, 89.00 124.41 13.31 73
12 07/31/2014 18:30:08 73.84,-103.26 55.76 07/31/2014 18:30:01 73.82,-103.28 55.74 2.18 7
13 07/31/2014 19:19:35 -73.90, 64.24 124.17 07/31/2014 19:20:42 -73.89, 64.21 124.19 1.48 67




NCC Satellite Simultaneous Nadir Overpasses (SNOs) Prediction Service
